Brady, TX

4:40 PM CDT on September 25, 2017 (GMT -0500)
Curtis

Weather History for KBBD - March, 2014

Change the Weather History Date:

Monday, March 31, 2014

  Actual Average (KJCT) Record (KJCT)
Temperature  
Mean Temperature 73 °F -  
Max Temperature 89 °F 72 °F 98 °F (2012)
Min Temperature 57 °F 47 °F 35 °F (2003)
Cooling Degree Days 8    
Growing Degree Days 23 (Base 50)    
Moisture  
Dew Point 52 °F    
Average Humidity 55    
Maximum Humidity 82    
Minimum Humidity 22    
Precipitation  
Precipitation 0.00 in - - ()
Sea Level Pressure  
Sea Level Pressure 29.88 in    
Wind  
Wind Speed 12 mph (South)    
Max Wind Speed 23 mph    
Max Gust Speed -    
Visibility 10 miles    
Events      
Averages and records for this station are not official NWS values.
T = Trace of Precipitation, MM = Missing Value Source: NWS Daily Summary

Daily Weather History Graph

Daily Weather History Graph

Search for Another Location

Airport or City:

Trip Planner

Search our weather history database for the weather conditions in past years. The results will help you decide how hot, cold, wet, or windy it might be!

Date:

Astronomy

Mar. 31, 2014 Rise Set
Actual Time 7:27 AM CDT 7:55 PM CDT
Civil Twilight 7:02 AM CDT 8:20 PM CDT
Nautical Twilight 6:34 AM CDT 8:48 PM CDT
Astronomical Twilight 6:05 AM CDT 9:17 PM CDT
Moon 7:55 AM CDT (3/31) 9:10 PM CDT (3/31)
Length of Visible Light 13h 17m
Length of Day
12h 28m
New Moon, 1% of the Moon is Illuminated
Mar 31
New Moon
Apr 7
First Quarter
Apr 15
Full
Apr 22
Last Quarter
Apr 29
New

Hourly Weather History & Observations

Time (CDT) Temp. Heat Index Dew Point Humidity Pressure Visibility Wind Dir Wind Speed Gust Speed Precip Events Conditions
12:55 AM 62.6 °F - 48.2 °F 59% 29.92 in 10.0 mi SSE 16.1 mph - N/A   Clear
1:15 AM 62.6 °F - 48.2 °F 59% 29.92 in 10.0 mi SSE 15.0 mph - N/A   Clear
1:35 AM 60.8 °F - 48.2 °F 63% 29.92 in 10.0 mi SSE 13.8 mph - N/A   Clear
1:55 AM 60.8 °F - 48.2 °F 63% 29.91 in 10.0 mi South 10.4 mph - N/A   Clear
2:15 AM 60.8 °F - 48.2 °F 63% 29.91 in 10.0 mi South 12.7 mph - N/A   Clear
2:35 AM 59.0 °F - 50.0 °F 72% 29.90 in 10.0 mi SSE 10.4 mph - N/A   Clear
2:55 AM 59.0 °F - 51.8 °F 77% 29.90 in 10.0 mi South 17.3 mph - N/A   Scattered Clouds
3:15 AM 59.0 °F - 51.8 °F 77% 29.89 in 10.0 mi South 12.7 mph - N/A   Overcast
3:30 AM 59.0 °F - 53.6 °F 82% 29.88 in 10.0 mi South 16.1 mph - N/A   Mostly Cloudy
3:55 AM 60.8 °F - 53.6 °F 77% 29.88 in 10.0 mi SSE 12.7 mph - N/A   Clear
4:15 AM 59.0 °F - 53.6 °F 82% 29.87 in 10.0 mi South 10.4 mph - N/A   Clear
4:35 AM 59.0 °F - 53.6 °F 82% 29.87 in 10.0 mi South 11.5 mph - N/A   Clear
4:55 AM 59.0 °F - 51.8 °F 77% 29.87 in 10.0 mi SSE 10.4 mph - N/A   Clear
5:15 AM 59.0 °F - 51.8 °F 77% 29.87 in 10.0 mi SSE 11.5 mph - N/A   Clear
5:35 AM 59.0 °F - 51.8 °F 77% 29.87 in 10.0 mi SSE 11.5 mph - N/A   Clear
5:55 AM 57.2 °F - 51.8 °F 82% 29.86 in 10.0 mi SSE 12.7 mph - N/A   Clear
6:15 AM 57.2 °F - 51.8 °F 82% 29.85 in 10.0 mi SSE 12.7 mph - N/A   Clear
6:35 AM 57.2 °F - 51.8 °F 82% 29.85 in 10.0 mi SSE 13.8 mph - N/A   Clear
6:55 AM 57.2 °F - 51.8 °F 82% 29.91 in 10.0 mi WSW 11.5 mph - N/A   Partly Cloudy
7:15 AM 57.2 °F - 51.8 °F 82% 29.91 in 10.0 mi SSW 10.4 mph - N/A   Mostly Cloudy
7:35 AM 59.0 °F - 51.8 °F 77% 29.90 in 10.0 mi South 12.7 mph - N/A   Overcast
7:55 AM 59.0 °F - 51.8 °F 77% 29.89 in 10.0 mi South 11.5 mph - N/A   Overcast
8:15 AM 60.8 °F - 53.6 °F 77% 29.89 in 10.0 mi SSE 9.2 mph - N/A   Mostly Cloudy
8:40 AM 60.8 °F - 53.6 °F 77% 29.89 in 10.0 mi South 10.4 mph - N/A   Clear
8:55 AM 62.6 °F - 53.6 °F 72% 29.89 in 10.0 mi South 13.8 mph - N/A   Clear
9:15 AM 64.4 °F - 55.4 °F 73% 29.90 in 10.0 mi South 12.7 mph - N/A   Clear
9:35 AM 66.2 °F - 55.4 °F 68% 29.90 in 10.0 mi South 16.1 mph - N/A   Partly Cloudy
9:55 AM 68.0 °F - 55.4 °F 64% 29.90 in 10.0 mi SSW 23.0 mph - N/A   Clear
10:10 AM 68.0 °F - 55.4 °F 64% 29.91 in 10.0 mi South 18.4 mph - N/A   Clear
10:35 AM 69.8 °F - 55.4 °F 60% 29.92 in 10.0 mi SSW 18.4 mph - N/A   Clear
10:55 AM 71.6 °F - 57.2 °F 60% 29.92 in 10.0 mi South 18.4 mph - N/A   Clear
11:15 AM 71.6 °F - 57.2 °F 60% 29.92 in 10.0 mi SSW 17.3 mph - N/A   Clear
11:35 AM 73.4 °F - 57.2 °F 57% 29.93 in 10.0 mi South 13.8 mph - N/A   Partly Cloudy
11:55 AM 73.4 °F - 57.2 °F 57% 29.93 in 10.0 mi SSW 13.8 mph - N/A   Clear
12:15 PM 75.2 °F - 57.2 °F 53% 29.92 in 10.0 mi SSW 12.7 mph - N/A   Clear
12:35 PM 75.2 °F - 57.2 °F 53% 29.92 in 10.0 mi SW 11.5 mph - N/A   Clear
12:55 PM 77.0 °F - 57.2 °F 50% 29.92 in 10.0 mi SSW 12.7 mph - N/A   Clear
1:15 PM 78.8 °F - 57.2 °F 47% 29.92 in 10.0 mi South 10.4 mph - N/A   Clear
1:35 PM 80.6 °F 80.5 °F 55.4 °F 42% 29.91 in 10.0 mi SW 8.1 mph - N/A   Clear
1:55 PM 80.6 °F 80.5 °F 55.4 °F 42% 29.90 in 10.0 mi SW 10.4 mph - N/A   Clear
2:15 PM 82.4 °F 81.4 °F 53.6 °F 37% 29.90 in 10.0 mi West 10.4 mph - N/A   Clear
2:35 PM 84.2 °F - 51.8 °F 33% 29.89 in 10.0 mi West 8.1 mph - N/A   Clear
2:55 PM 84.2 °F - 51.8 °F 33% 29.88 in 10.0 mi WSW 8.1 mph - N/A   Clear
3:15 PM 86.0 °F 84.2 °F 53.6 °F 33% 29.87 in 10.0 mi SSW 8.1 mph - N/A   Clear
3:35 PM 86.0 °F - 51.8 °F 31% 29.86 in 10.0 mi West 5.8 mph - N/A   Clear
3:55 PM 86.0 °F - 50.0 °F 29% 29.85 in 10.0 mi Variable 3.5 mph - N/A   Clear
4:15 PM 87.8 °F - 50.0 °F 27% 29.85 in 10.0 mi Variable 4.6 mph - N/A   Clear
4:35 PM 87.8 °F - 48.2 °F 25% 29.84 in 10.0 mi Variable 4.6 mph - N/A   Clear
4:55 PM 87.8 °F - 48.2 °F 25% 29.84 in 10.0 mi SSW 9.2 mph - N/A   Clear
5:15 PM 89.6 °F - 46.4 °F 22% 29.83 in 10.0 mi SSW 6.9 mph - N/A   Clear
5:35 PM 89.6 °F - 46.4 °F 22% 29.83 in 10.0 mi Variable 4.6 mph - N/A   Clear
5:55 PM 87.8 °F - 48.2 °F 25% 29.82 in 10.0 mi SSE 6.9 mph - N/A   Clear
6:15 PM 87.8 °F - 48.2 °F 25% 29.82 in 10.0 mi SE 6.9 mph - N/A   Clear
6:35 PM 86.0 °F - 48.2 °F 27% 29.82 in 10.0 mi South 9.2 mph - N/A   Clear
6:55 PM 86.0 °F - 46.4 °F 25% 29.82 in 10.0 mi SE 5.8 mph - N/A   Clear
7:15 PM 82.4 °F - 51.8 °F 35% 29.83 in 10.0 mi ESE 9.2 mph - N/A   Clear
7:35 PM 82.4 °F - 50.0 °F 32% 29.84 in 10.0 mi ESE 6.9 mph - N/A   Clear
7:55 PM 80.6 °F - 51.8 °F 37% 29.84 in 10.0 mi ESE 10.4 mph - N/A   Clear
8:15 PM 78.8 °F - 51.8 °F 39% 29.85 in 10.0 mi SE 8.1 mph - N/A   Clear
8:35 PM 77.0 °F - 51.8 °F 41% 29.86 in 10.0 mi SE 9.2 mph - N/A   Clear
8:55 PM 75.2 °F - 51.8 °F 44% 29.86 in 10.0 mi SE 9.2 mph - N/A   Clear
9:15 PM 73.4 °F - 51.8 °F 47% 29.88 in 10.0 mi SE 8.1 mph - N/A   Clear
9:35 PM 73.4 °F - 51.8 °F 47% 29.88 in 10.0 mi SE 9.2 mph - N/A   Clear
9:55 PM 73.4 °F - 51.8 °F 47% 29.90 in 10.0 mi SE 5.8 mph - N/A   Clear
10:15 PM 71.6 °F - 51.8 °F 50% 29.90 in 10.0 mi SE 5.8 mph - N/A   Clear
10:35 PM 69.8 °F - 51.8 °F 53% 29.90 in 10.0 mi SSE 5.8 mph - N/A   Clear
10:55 PM 69.8 °F - 51.8 °F 53% 29.91 in 10.0 mi SE 5.8 mph - N/A   Clear
11:15 PM 69.8 °F - 51.8 °F 53% 29.91 in 10.0 mi SE 10.4 mph - N/A   Clear
11:35 PM 69.8 °F - 53.6 °F 56% 29.91 in 10.0 mi SE 6.9 mph - N/A   Clear
11:55 PM 69.8 °F - 53.6 °F 56% 29.91 in 10.0 mi SSE 5.8 mph - N/A   Clear